Arcadia, Wisconsin
Current Conditions -  °F | °C
As of 6:34 PM on Thursday 18 Dec 2014 (Local Time) from KONA Reporting Station
Overcast Overcast  
Wind Chill: -3°   Ceiling: 1700
Heat Index: -3°   Visibility: 10mi
Dew Point: -7°   Wind: 0mph
Humidity: 74%   Direction: NA
Pressure: 30.29"   Gusts: NA
Location:  44.25°N, 91.5°W
Report Text: KONA 190034Z AUTO 00000KT 10SM OVC017 M03/M07 A3029 RMK AO2
Loading
Personal Weather Stations






























Interactive Weather Map New forecast layout! Learn more

10-Day Weather Forecast

Advertisements
Track Severe Weather on mobile